TimeEDT,TemperatureF,Dew PointF,Humidity,Sea Level PressureIn,VisibilityMPH,Wind Direction,Wind SpeedMPH,Gust SpeedMPH,PrecipitationIn,Events,Conditions,WindDirDegrees,DateUTC
12:11 AM,77.0,73.4,89,30.15,1.8,East,4.6,16.1,0.15,Rain,Heavy Rain,80,2013-09-11 04:11:00
12:21 AM,77.0,73.4,89,30.16,2.5,SE,17.3,27.6,0.21,Rain,Light Rain,130,2013-09-11 04:21:00
12:23 AM,75.2,73.4,94,30.17,1.8,SE,23.0,27.6,0.31,Rain-Thunderstorm,Heavy Thunderstorms and Rain,130,2013-09-11 04:23:00
12:31 AM,73.4,71.6,94,30.16,0.5,Variable,3.5,-,0.84,Fog-Rain-Thunderstorm,Heavy Thunderstorms and Rain,0,2013-09-11 04:31:00
12:46 AM,73.4,73.4,100,30.15,1.5,NNW,4.6,-,1.18,Rain-Thunderstorm,Light Thunderstorms and Rain,340,2013-09-11 04:46:00
12:48 AM,73.4,73.4,100,30.15,3.0,Variable,3.5,-,1.20,Rain-Thunderstorm,Light Thunderstorms and Rain,0,2013-09-11 04:48:00
12:51 AM,73.4,73.4,100,30.15,1.8,South,8.1,-,1.28,Rain-Thunderstorm,Heavy Thunderstorms and Rain,170,2013-09-11 04:51:00
12:53 AM,73.9,73.0,97,30.15,1.5,SE,11.5,17.3,1.30,Rain-Thunderstorm,Heavy Thunderstorms and Rain,130,2013-09-11 04:53:00
1:00 AM,75.2,73.4,94,30.15,1.2,ESE,10.4,-,0.14,Rain-Thunderstorm,Heavy Rain,120,2013-09-11 05:00:00
1:10 AM,75.2,71.6,89,30.15,0.8,Calm,Calm,-,0.57,Rain-Thunderstorm,Heavy Rain,0,2013-09-11 05:10:00
1:13 AM,75.2,71.6,89,30.15,0.8,North,9.2,20.7,0.62,Rain,Heavy Rain,350,2013-09-11 05:13:00
1:25 AM,75.2,73.4,94,30.14,1.8,NW,5.8,-,0.83,Rain,Heavy Rain,320,2013-09-11 05:25:00
1:29 AM,75.2,73.4,94,30.13,3.0,WNW,4.6,-,0.83,Rain,Light Rain,290,2013-09-11 05:29:00
1:53 AM,73.9,72.0,93,30.14,10.0,Calm,Calm,-,0.84,,Mostly Cloudy,0,2013-09-11 05:53:00
2:02 AM,75.2,71.6,89,30.14,10.0,North,8.1,-,N/A,,Mostly Cloudy,360,2013-09-11 06:02:00
2:13 AM,75.2,71.6,89,30.14,10.0,NW,3.5,-,N/A,,Scattered Clouds,320,2013-09-11 06:13:00
2:53 AM,73.9,72.0,93,30.12,7.0,Calm,Calm,-,N/A,Thunderstorm,Clear,0,2013-09-11 06:53:00
3:17 AM,75.2,73.4,94,30.12,7.0,Calm,Calm,-,0.01,Rain,Light Rain,0,2013-09-11 07:17:00
3:34 AM,75.2,71.6,89,30.12,10.0,North,5.8,-,0.01,,Mostly Cloudy,350,2013-09-11 07:34:00
3:44 AM,75.2,71.6,89,30.12,10.0,NNW,8.1,-,0.01,,Scattered Clouds,340,2013-09-11 07:44:00
3:53 AM,73.9,72.0,93,30.12,10.0,North,6.9,-,0.01,,Scattered Clouds,360,2013-09-11 07:53:00
4:53 AM,73.9,72.0,93,30.12,9.0,NNW,3.5,-,0.01,,Scattered Clouds,340,2013-09-11 08:53:00
5:53 AM,75.0,73.0,94,30.12,9.0,North,4.6,-,N/A,Thunderstorm,Partly Cloudy,360,2013-09-11 09:53:00
6:10 AM,75.2,73.4,94,30.12,7.0,North,3.5,-,N/A,,Mostly Cloudy,350,2013-09-11 10:10:00
6:53 AM,75.0,73.0,94,30.12,7.0,Calm,Calm,-,0.00,,Partly Cloudy,0,2013-09-11 10:53:00
7:53 AM,75.9,73.9,94,30.14,7.0,NNE,4.6,-,N/A,,Partly Cloudy,30,2013-09-11 11:53:00
8:53 AM,80.1,73.0,79,30.15,10.0,ENE,8.1,-,N/A,,Partly Cloudy,60,2013-09-11 12:53:00
9:16 AM,78.8,73.4,83,30.15,1.8,SE,11.5,18.4,0.12,Rain,Heavy Rain,130,2013-09-11 13:16:00
9:22 AM,78.8,73.4,83,30.15,2.0,East,5.8,-,0.13,Rain,Light Rain,90,2013-09-11 13:22:00
9:30 AM,80.6,75.2,84,30.15,10.0,Variable,3.5,-,0.13,,Mostly Cloudy,0,2013-09-11 13:30:00
9:44 AM,80.6,75.2,84,30.15,9.0,NNE,4.6,-,0.13,,Scattered Clouds,30,2013-09-11 13:44:00
9:53 AM,81.0,75.0,82,30.16,10.0,NE,4.6,-,0.13,,Scattered Clouds,40,2013-09-11 13:53:00
10:47 AM,78.8,71.6,78,30.17,1.8,NNE,9.2,29.9,0.07,Rain,Light Rain,30,2013-09-11 14:47:00
10:53 AM,79.0,72.0,79,30.16,1.5,NNE,10.4,27.6,0.07,Rain,Light Rain,30,2013-09-11 14:53:00
11:01 AM,80.6,73.4,79,30.16,10.0,NE,5.8,-,0.00,,Scattered Clouds,40,2013-09-11 15:01:00
11:14 AM,82.4,73.4,74,30.16,10.0,NE,12.7,-,0.00,Thunderstorm,Partly Cloudy,50,2013-09-11 15:14:00
11:53 AM,84.9,73.0,67,30.16,10.0,ENE,12.7,-,0.00,Thunderstorm,Clear,70,2013-09-11 15:53:00
12:11 PM,84.2,71.6,66,30.15,10.0,ENE,12.7,-,N/A,,Partly Cloudy,70,2013-09-11 16:11:00
12:53 PM,86.0,72.0,63,30.15,10.0,ENE,11.5,-,N/A,,Clear,70,2013-09-11 16:53:00
1:53 PM,84.9,73.0,67,30.13,10.0,ENE,11.5,-,0.00,,Scattered Clouds,70,2013-09-11 17:53:00
2:53 PM,86.0,73.0,65,30.12,10.0,East,12.7,-,N/A,,Clear,80,2013-09-11 18:53:00
3:53 PM,84.9,73.0,67,30.11,10.0,ENE,11.5,-,N/A,,Clear,70,2013-09-11 19:53:00
4:53 PM,84.0,73.9,72,30.10,10.0,East,10.4,-,N/A,,Clear,80,2013-09-11 20:53:00
5:53 PM,82.9,71.1,67,30.09,10.0,East,9.2,-,N/A,,Clear,90,2013-09-11 21:53:00
6:53 PM,82.0,71.1,69,30.08,10.0,ENE,9.2,-,N/A,,Clear,60,2013-09-11 22:53:00
7:53 PM,80.1,72.0,76,30.07,10.0,NE,5.8,-,N/A,,Clear,50,2013-09-11 23:53:00
8:53 PM,80.1,73.0,79,30.08,10.0,NE,6.9,-,N/A,,Partly Cloudy,50,2013-09-12 00:53:00
9:53 PM,80.1,72.0,76,30.09,10.0,ENE,6.9,-,N/A,,Partly Cloudy,60,2013-09-12 01:53:00
10:53 PM,80.1,72.0,76,30.09,10.0,ENE,6.9,-,N/A,,Partly Cloudy,70,2013-09-12 02:53:00
11:53 PM,80.1,72.0,76,30.08,10.0,ENE,4.6,-,N/A,,Clear,70,2013-09-12 03:53:00